sat.trackr.live / text

‹ back to catalog

STARLINK-31012

NORAD 58531 · 2023-192A

PAYLOAD ACTIVE UNKNOWN

§ Identity

Operator
Country
US
Launch date
2023-12-08
Launch site
AFWTR
Launch vehicle
Mass (kg)
RCS (m²)

Purposes: comms

External: N2YO · Heavens-Above · Gunter

§ Orbital elements

Epoch: 2026-05-25T02:04:15.493152Z

Period
94.11 min
Inclination
53.1601°
Eccentricity
0.0000952
Mean motion
15.30198458 rev/d
Perigee alt
474.6 km
Apogee alt
475.9 km
Semi-major
6,853.4 km
B*
2.6897e-6
RAAN
67.7734°
Arg perigee
82.3263°
Mean anomaly
277.7846°
Rev number
13,768

§ Raw data

STARLINK-310121 58531U 23192A   26145.08629043 -.00000279  00000+0  26897-5 0  99942 58531  53.1601  67.7734 0000952  82.3263 277.7846 15.30198458137684

JSON: /api/v1/satellites/58531 · /tle

For live sub-satellite position, see the globe view (requires WebGL).

§ Visibility from observer

Set your observer location to see the next 7 days of passes ≥ 10°. The values pass through the URL so the page stays shareable.

No JS? Fill the form by hand. The geolocation button needs JavaScript.